Location: Newark
(40.9833°N, 0.0333°W)
Time: 21:05:53
(UTC+00:00)

Vanguard 1 Rocket - All Passes

Search period start: 28 October 2020 00:00
Search period end: 07 November 2020 00:00
Orbit: 656 x 4221 km, 34.3° (Epoch: 27 October)

Date Brightness Start Highest point End Pass type
(mag) Time Alt. Az. Time Alt. Az. Time Alt. Az.
28 Oct - 09:46:53 10° SW 09:50:57 22° SSE 09:54:25 10° ESE daylight
28 Oct - 12:11:04 10° WSW 12:15:10 38° S 12:19:58 10° ESE daylight
28 Oct - 14:35:20 10° WSW 14:39:42 28° SSW 14:46:06 10° SE daylight
28 Oct - 17:02:26 10° SW 17:05:26 12° SSW 17:09:02 10° S daylight
29 Oct - 08:36:25 10° SSW 08:40:11 16° SSE 08:43:15 10° ESE daylight
29 Oct - 11:00:21 10° WSW 11:04:38 34° S 11:08:45 10° ESE daylight
29 Oct - 13:24:49 10° WSW 13:28:54 33° S 13:34:21 10° SE daylight
29 Oct - 15:50:08 10° WSW 15:53:58 17° SSW 15:59:06 10° SSE daylight
30 Oct - 07:26:43 10° S 07:29:08 12° SSE 07:31:14 10° SE daylight
30 Oct - 09:49:22 10° SW 09:54:03 28° SSE 09:57:53 10° ESE daylight
30 Oct - 12:14:13 10° WSW 12:18:17 36° S 12:22:56 10° ESE daylight
30 Oct - 14:39:00 10° WSW 14:42:51 21° SSW 14:48:06 10° SSE daylight
31 Oct - 08:38:12 10° SW 08:43:19 23° SSE 08:47:07 10° ESE daylight
31 Oct - 11:03:19 10° WSW 11:07:45 37° S 11:11:55 10° ESE daylight
31 Oct - 13:28:13 10° WSW 13:32:02 27° SSW 13:36:54 10° SE daylight
31 Oct - 15:55:50 10° SW 15:57:09 11° SSW 15:58:32 10° SSW daylight
01 Nov - 07:27:07 10° SSW 07:32:18 18° SSE 07:36:09 10° ESE daylight
01 Nov - 09:52:02 10° WSW 09:57:10 34° S 10:01:13 10° ESE daylight
01 Nov - 12:17:25 10° WSW 12:21:25 32° S 12:25:49 10° SE daylight
01 Nov - 14:43:04 10° SW 14:46:00 15° SSW 14:49:35 10° SSE daylight
02 Nov - 06:16:43 10° S 06:20:57 13° SSE 06:24:21 10° SE daylight
02 Nov - 08:40:24 10° SW 08:46:27 30° SSE 08:50:41 10° ESE daylight
02 Nov - 11:06:21 10° WSW 11:10:52 37° S 11:15:01 10° ESE daylight
02 Nov - 13:31:47 10° WSW 13:35:09 20° SSW 13:39:12 10° SSE daylight
03 Nov - 07:28:35 10° SW 07:35:28 25° SSE 07:40:05 10° ESE daylight
03 Nov - 09:54:50 10° WSW 10:00:18 39° S 10:04:28 10° ESE daylight
03 Nov - 12:20:42 10° WSW 12:24:31 27° SSW 12:28:35 10° SE daylight
04 Nov - 06:16:55 10° SSW 06:24:08 20° SSE 06:29:06 10° ESE daylight
04 Nov - 08:42:50 10° SW 08:49:35 36° S 08:54:04 10° ESE daylight
04 Nov - 11:09:26 10° WSW 11:14:00 35° S 11:18:03 10° ESE daylight
04 Nov - 13:35:43 10° SW 13:38:13 14° SSW 13:41:02 10° SSE daylight
05 Nov - 05:06:04 10° S 05:12:25 15° SSE 05:17:12 10° ESE visible
05 Nov - 07:30:29 10° SW 07:38:37 32° SSE 07:43:41 10° ESE daylight
05 Nov - 09:57:43 10° WSW 10:03:26 41° S 10:07:40 10° ESE daylight
05 Nov - 12:24:06 10° WSW 12:27:35 22° SSW 12:31:10 10° SSE daylight
06 Nov - 03:59:04 10° SSE 04:00:16 10° SSE 04:01:26 10° SE visible
06 Nov - 06:18:02 10° SSW 06:27:18 27° SSE 06:33:03 10° ESE daylight
06 Nov - 08:45:26 10° WSW 08:52:43 42° S 08:57:23 10° ESE daylight
06 Nov - 11:12:34 10° WSW 11:17:04 31° SSW 11:21:00 10° SE daylight
